FW0683 Weather Reports


Display with metric or nautical units.
time (UTC)temp
F
wind
direction
speed
MPH
gust
MPH
rain 1hr
in
rain 24hr
in
rain mn
in
humidity
%
barometer
mb
20260507203035 63 354 0.0 7.0 0.00 0.24 0.02 32 1008.8
20260507201533 63 253 1.0 10.0 0.00 0.24 0.02 33 1008.9
20260507200030 63 195 0.0 3.0 0.00 0.28 0.02 32 1008.9
20260507194531 64 217 0.0 6.0 0.00 0.28 0.02 32 1008.9
20260507193030 64 7 1.0 10.0 0.00 0.28 0.02 31 1009.0
20260507191527 64 155 0.0 9.0 0.00 0.28 0.02 30 1009.1
20260507190027 64 101 0.0 11.0 0.00 0.32 0.02 32 1009.3
20260507184525 65 321 0.0 6.0 0.00 0.32 0.02 35 1009.4
20260507183025 64 131 0.0 1.0 0.00 0.32 0.02 30 1009.4
20260507181523 64 255 0.0 7.0 0.00 0.32 0.02 31 1009.5
20260507180023 64 23 0.0 11.0 0.00 0.32 0.02 36 1009.3
20260507174624 64 315 0.0 2.0 0.00 0.32 0.02 33 1009.4
20260507173030 63 275 0.0 5.0 0.00 0.32 0.02 36 1009.6
20260507171519 64 288 1.0 11.0 0.00 0.32 0.02 35 1009.6
20260507170016 63 257 0.0 6.0 0.00 0.32 0.02 44 1009.8
20260507164514 63 120 0.0 7.0 0.00 0.32 0.02 41 1009.8
20260507163012 60 290 0.0 9.0 0.00 0.32 0.02 47 1010.3
20260507161520 61 251 0.0 5.0 0.00 0.32 0.02 54 1010.3
20260507160112 60 300 0.0 3.0 0.00 0.32 0.02 51 1010.6
20260507154513 61 354 0.0 11.0 0.00 0.32 0.02 50 1010.6
20260507153011 62 113 0.0 5.0 0.00 0.32 0.02 49 1010.8
20260507151510 61 301 0.0 11.0 0.00 0.32 0.02 49 1010.9
20260507150008 61 266 0.0 1.0 0.00 0.32 0.02 52 1011.1
20260507144506 61 300 0.0 3.0 0.00 0.32 0.02 56 1011.1
20260507143007 60 275 0.0 1.0 0.00 0.32 0.02 55 1010.9
20260507141501 59 132 0.0 8.0 0.00 0.32 0.02 58 1010.8
20260507140100 58 354 0.0 1.0 0.00 0.32 0.02 55 1010.8
20260507134557 57 95 0.0 4.0 0.00 0.32 0.02 59 1010.8
20260507133054 56 13 0.0 2.0 0.00 0.32 0.02 59 1011.2
20260507131551 55 343 0.0 5.0 0.00 0.32 0.02 67 1011.3
20260507130048 54 276 0.0 2.0 0.00 0.32 0.02 69 1011.4
20260507124547 53 255 0.0 2.0 0.00 0.32 0.02 72 1011.5
20260507123048 52 272 0.0 0.0 0.00 0.32 0.02 75 1011.7
20260507121546 51 349 0.0 3.0 0.00 0.32 0.02 80 1011.6
20260507120042 50 262 0.0 3.0 0.00 0.32 0.02 86 1011.6
20260507114542 48 10 0.0 1.0 0.00 0.32 0.02 90 1011.5
20260507113042 46 65 0.0 1.0 0.00 0.32 0.02 91 1011.3
20260507111544 46 65 0.0 2.0 0.00 0.32 0.02 92 1011.6
20260507110039 46 281 0.0 1.0 0.00 0.32 0.02 93 1011.3
20260507104538 45 324 0.0 2.0 0.00 0.32 0.02 93 1011.0
20260507103040 45 134 0.0 0.0 0.00 0.32 0.02 93 1011.1
20260507101545 45 134 0.0 1.0 0.00 0.32 0.02 93 1011.1
20260507100041 46 123 0.0 1.0 0.00 0.32 0.02 93 1011.3
20260507094542 46 347 0.0 0.0 0.00 0.32 0.02 93 1011.3
20260507093036 46 347 0.0 1.0 0.00 0.32 0.02 92 1011.1
20260507091532 46 234 0.0 0.0 0.01 0.32 0.02 92 1011.2
20260507090035 46 41 0.0 2.0 0.02 0.32 0.02 92 1010.6
20260507084535 46 146 0.0 1.0 0.02 0.32 0.02 91 1010.5
20260507083027 47 279 0.0 1.0 0.02 0.32 0.02 91 1010.5
20260507081526 48 264 0.0 1.0 0.01 0.31 0.01 89 1010.3
20260507080022 48 308 0.0 2.0 0.00 0.30 0.00 86 1010.8
20260507074521 49 329 0.0 7.0 0.00 0.30 0.00 86 1010.5
20260507073019 49 41 0.0 5.0 0.00 0.30 0.00 88 1010.3
20260507071517 49 347 0.0 3.0 0.00 0.30 0.00 89 1010.4
20260507070019 49 311 0.0 2.0 0.00 0.30 0.00 90 1010.0
20260507064514 49 334 1.0 4.0 0.00 0.30 0.00 90 1010.2
20260507063014 50 349 0.0 1.0 0.00 0.30 0.00 90 1009.9
20260507061514 50 352 0.0 4.0 0.00 0.30 0.00 89 1009.7
20260507060011 50 238 0.0 2.0 0.00 0.30 0.00 89 1010.1
20260507054509 50 304 0.0 2.0 0.00 0.30 0.00 90 1010.3
20260507053008 50 326 0.0 3.0 0.00 0.30 0.00 90 1010.2
20260507051506 51 288 0.0 1.0 0.00 0.30 0.00 91 1010.0
20260507050003 51 323 0.0 2.0 0.00 0.30 0.00 91 1009.8
20260507044504 52 97 0.0 2.0 0.00 0.30 0.00 91 1010.0
20260507043104 53 262 0.0 1.0 0.00 0.30 0.00 92 1010.1
20260507041559 53 270 0.0 2.0 0.00 0.30 0.00 92 1010.1
20260507040051 54 293 0.0 2.0 0.01 0.30 0.00 92 1009.6
20260507034555 55 209 0.0 3.0 0.01 0.30 0.30 92 1009.4
20260507033046 56 310 0.0 3.0 0.01 0.30 0.30 93 1009.2
20260507031543 58 224 1.0 4.0 0.01 0.30 0.30 93 1009.4
20260507030040 59 271 0.0 1.0 0.00 0.28 0.28 94 1008.9
20260507024544 59 211 0.0 4.0 0.00 0.28 0.28 94 1008.5
20260507023039 59 193 0.0 1.0 0.00 0.28 0.28 93 1008.3
20260507021540 59 290 0.0 3.0 0.00 0.28 0.28 93 1008.4
20260507020045 59 98 0.0 3.0 0.00 0.28 0.28 93 1008.5
20260507014537 59 121 0.0 5.0 0.00 0.28 0.28 93 1008.7
20260507013038 59 259 0.0 4.0 0.00 0.28 0.28 93 1008.8
20260507011536 59 193 0.0 3.0 0.00 0.28 0.28 93 1008.8
20260507010040 59 343 0.0 3.0 0.00 0.28 0.28 93 1008.8
20260507004535 59 200 0.0 3.0 0.01 0.28 0.28 93 1008.7
20260507003034 59 360 0.0 3.0 0.02 0.28 0.28 93 1008.8
20260507001539 59 237 0.0 3.0 0.04 0.28 0.28 93 1008.7
20260507000034 59 336 0.0 3.0 0.05 0.28 0.28 93 1008.5
20260506234531 59 121 0.0 5.0 0.04 0.28 0.28 93 1008.4
20260506233031 59 264 0.0 6.0 0.04 0.27 0.27 93 1008.5
20260506231529 59 209 1.0 6.0 0.03 0.25 0.25 93 1008.8
20260506230031 59 295 1.0 5.0 0.05 0.24 0.24 92 1008.7
20260506224527 59 28 0.0 6.0 0.07 0.24 0.24 92 1008.8
20260506223026 60 105 1.0 7.0 0.06 0.23 0.23 92 1008.8
20260506221525 60 299 0.0 4.0 0.06 0.22 0.22 92 1009.0
20260506220023 60 131 0.0 2.0 0.04 0.19 0.19 92 1009.1
20260506214522 60 288 0.0 7.0 0.03 0.17 0.17 91 1009.2
20260506213020 60 312 0.0 4.0 0.05 0.17 0.17 91 1009.4
20260506211518 61 255 0.0 1.0 0.06 0.16 0.16 91 1009.7
20260506210021 61 288 0.0 2.0 0.07 0.15 0.15 90 1009.8
20260506204516 61 296 0.0 8.0 0.07 0.14 0.14 90 1009.9